Location: Newark
(44.2003°N, 3.2583°E)
Time: 22:56:37
(UTC+00:00)

Explorer 7 - Pass Details

Date: 25 October 2019
Orbit: 485 x 680 km, 50.3° (Epoch: 13 November)

Event Time Altitude Azimuth Distance (km) Brightness Sun altitude
Rises 10:22:48 0° 257° (WSW) 2,571 10.2 31.6°
Reaches altitude 10° 10:25:02 10° 262° (W) 1,677 9.3 31.8°
Maximum altitude 10:28:43 52° 340° (NNW) 612 7.1 32.0°
Drops below altitude 10° 10:32:24 10° 58° (ENE) 1,671 9.2 32.2°
Sets 10:34:37 0° 63° (ENE) 2,562 10.1 32.3°
